| time (UTC) | temp C | wind direction | speed KPH | gust KPH | rain 1hr cm | rain 24hr cm | rain mn cm | humidity % | barometer mb |
| 20260507051019 | 13 | 237 | 1.6 | 6.4 | 0.00 | 0.23 | 0.00 | 94 | 1006.4 |
| 20260507050519 | 13 | 225 | 1.6 | 6.4 | 0.00 | 0.23 | 0.00 | 94 | 1006.5 |
| 20260507050043 | 13 | 0 | 1.6 | 6.4 | 0.00 | 0.23 | 0.00 | 94 | 1006.6 |
| 20260507045523 | 13 | 157 | 1.6 | 6.4 | 0.00 | 0.23 | 0.00 | 94 | 1006.6 |
| 20260507045019 | 13 | 0 | 0.0 | 6.4 | 0.00 | 0.23 | 0.00 | 94 | 1006.6 |
| 20260507044539 | 13 | 225 | 1.6 | 6.4 | 0.00 | 0.23 | 0.00 | 94 | 1006.6 |
| 20260507044018 | 13 | 255 | 0.0 | 4.8 | 0.00 | 0.23 | 0.00 | 94 | 1006.7 |
| 20260507043519 | 13 | 0 | 1.6 | 4.8 | 0.00 | 0.23 | 0.00 | 94 | 1006.6 |
| 20260507043039 | 13 | 189 | 1.6 | 4.8 | 0.00 | 0.23 | 0.00 | 94 | 1006.5 |
| 20260507042519 | 13 | 0 | 1.6 | 6.4 | 0.00 | 0.23 | 0.00 | 94 | 1006.4 |
| 20260507042018 | 13 | 221 | 1.6 | 6.4 | 0.00 | 0.23 | 0.00 | 94 | 1006.2 |
| 20260507041542 | 13 | 0 | 0.0 | 4.8 | 0.00 | 0.23 | 0.00 | 94 | 1006.3 |
| 20260507041019 | 13 | 262 | 1.6 | 4.8 | 0.00 | 0.23 | 0.00 | 94 | 1006.4 |
| 20260507040519 | 13 | 220 | 0.0 | 4.8 | 0.00 | 0.23 | 0.00 | 94 | 1006.4 |
| 20260507040042 | 13 | 210 | 1.6 | 9.7 | 0.00 | 0.23 | 0.00 | 94 | 1006.2 |
| 20260507035519 | 13 | 202 | 3.2 | 11.3 | 0.00 | 0.23 | 0.23 | 94 | 1006.2 |
| 20260507035018 | 13 | 142 | 4.8 | 12.9 | 0.00 | 0.23 | 0.23 | 94 | 1006.4 |
| 20260507034538 | 13 | 156 | 1.6 | 12.9 | 0.00 | 0.23 | 0.23 | 94 | 1006.5 |
| 20260507034019 | 13 | 162 | 4.8 | 12.9 | 0.00 | 0.23 | 0.23 | 94 | 1006.7 |
| 20260507033521 | 13 | 219 | 4.8 | 14.5 | 0.00 | 0.23 | 0.23 | 94 | 1006.6 |
| 20260507033037 | 12 | 210 | 3.2 | 14.5 | 0.00 | 0.23 | 0.23 | 94 | 1006.7 |
| 20260507032519 | 12 | 188 | 3.2 | 20.9 | 0.00 | 0.23 | 0.23 | 94 | 1006.5 |
| 20260507032019 | 12 | 181 | 6.4 | 20.9 | 0.00 | 0.23 | 0.23 | 94 | 1006.5 |
| 20260507031537 | 12 | 200 | 4.8 | 12.9 | 0.00 | 0.23 | 0.23 | 94 | 1006.6 |
| 20260507031024 | 12 | 213 | 1.6 | 9.7 | 0.00 | 0.23 | 0.23 | 94 | 1006.6 |
| 20260507030519 | 12 | 224 | 3.2 | 12.9 | 0.00 | 0.23 | 0.23 | 94 | 1006.3 |
| 20260507030039 | 12 | 218 | 3.2 | 16.1 | 0.00 | 0.23 | 0.23 | 94 | 1006.4 |
| 20260507025519 | 12 | 159 | 6.4 | 16.1 | 0.00 | 0.23 | 0.23 | 94 | 1006.3 |
| 20260507025018 | 12 | 153 | 4.8 | 14.5 | 0.00 | 0.23 | 0.23 | 94 | 1006.4 |
| 20260507024537 | 12 | 109 | 4.8 | 14.5 | 0.00 | 0.23 | 0.23 | 93 | 1006.4 |
| 20260507024018 | 12 | 259 | 4.8 | 16.1 | 0.00 | 0.23 | 0.23 | 93 | 1006.5 |
| 20260507023522 | 12 | 219 | 4.8 | 16.1 | 0.00 | 0.23 | 0.23 | 93 | 1006.4 |
| 20260507023037 | 12 | 213 | 4.8 | 12.9 | 0.00 | 0.23 | 0.23 | 93 | 1006.3 |
| 20260507022520 | 12 | 217 | 3.2 | 14.5 | 0.00 | 0.23 | 0.23 | 93 | 1006.4 |
| 20260507022019 | 12 | 250 | 4.8 | 14.5 | 0.00 | 0.23 | 0.23 | 93 | 1006.5 |
| 20260507021538 | 12 | 226 | 3.2 | 12.9 | 0.00 | 0.23 | 0.23 | 93 | 1006.6 |
| 20260507021021 | 12 | 195 | 4.8 | 12.9 | 0.00 | 0.23 | 0.23 | 93 | 1006.5 |
| 20260507020520 | 12 | 208 | 4.8 | 11.3 | 0.00 | 0.23 | 0.23 | 93 | 1006.6 |
| 20260507020036 | 13 | 201 | 4.8 | 11.3 | 0.00 | 0.23 | 0.23 | 93 | 1006.7 |
| 20260507015518 | 13 | 156 | 4.8 | 12.9 | 0.00 | 0.23 | 0.23 | 93 | 1006.7 |
| 20260507015019 | 13 | 82 | 3.2 | 14.5 | 0.00 | 0.23 | 0.23 | 93 | 1006.9 |
| 20260507014547 | 12 | 189 | 6.4 | 16.1 | 0.00 | 0.23 | 0.23 | 93 | 1006.9 |
| 20260507014019 | 12 | 188 | 6.4 | 16.1 | 0.00 | 0.23 | 0.23 | 93 | 1006.7 |
| 20260507013520 | 12 | 226 | 4.8 | 12.9 | 0.00 | 0.23 | 0.23 | 93 | 1006.9 |
| 20260507013045 | 13 | 213 | 3.2 | 16.1 | 0.00 | 0.23 | 0.23 | 93 | 1007.0 |
| 20260507012521 | 13 | 172 | 6.4 | 16.1 | 0.00 | 0.23 | 0.23 | 93 | 1006.9 |
| 20260507012023 | 12 | 120 | 4.8 | 14.5 | 0.00 | 0.23 | 0.23 | 93 | 1007.0 |
| 20260507011543 | 12 | 250 | 4.8 | 14.5 | 0.00 | 0.23 | 0.23 | 93 | 1007.1 |
| 20260507011019 | 13 | 222 | 6.4 | 14.5 | 0.00 | 0.23 | 0.23 | 93 | 1007.2 |
| 20260507010520 | 13 | 205 | 6.4 | 14.5 | 0.00 | 0.23 | 0.23 | 93 | 1007.1 |
| 20260507010043 | 13 | 221 | 6.4 | 16.1 | 0.00 | 0.23 | 0.23 | 93 | 1007.1 |
| 20260507005519 | 12 | 101 | 6.4 | 16.1 | 0.03 | 0.23 | 0.23 | 93 | 1007.2 |
| 20260507005021 | 12 | 46 | 6.4 | 14.5 | 0.03 | 0.23 | 0.23 | 93 | 1007.1 |
| 20260507004537 | 12 | 165 | 3.2 | 17.7 | 0.05 | 0.23 | 0.23 | 93 | 1007.1 |
| 20260507004020 | 12 | 176 | 6.4 | 17.7 | 0.05 | 0.23 | 0.23 | 93 | 1007.1 |
| 20260507003519 | 12 | 225 | 6.4 | 16.1 | 0.05 | 0.23 | 0.23 | 93 | 1007.0 |
| 20260507003032 | 12 | 182 | 3.2 | 16.1 | 0.05 | 0.23 | 0.23 | 93 | 1006.9 |
| 20260507002524 | 12 | 130 | 6.4 | 24.1 | 0.05 | 0.23 | 0.23 | 93 | 1007.0 |
| 20260507002019 | 13 | 217 | 8.0 | 24.1 | 0.05 | 0.23 | 0.23 | 93 | 1007.1 |
| 20260507001553 | 13 | 222 | 6.4 | 20.9 | 0.05 | 0.23 | 0.23 | 93 | 1007.0 |
| 20260507001018 | 13 | 196 | 8.0 | 22.5 | 0.05 | 0.23 | 0.23 | 93 | 1007.0 |
| 20260507000522 | 13 | 219 | 8.0 | 22.5 | 0.05 | 0.23 | 0.23 | 93 | 1007.0 |
| 20260507000037 | 13 | 259 | 8.0 | 22.5 | 0.05 | 0.23 | 0.23 | 93 | 1006.9 |
| 20260506235519 | 13 | 188 | 9.7 | 20.9 | 0.03 | 0.20 | 0.20 | 93 | 1006.9 |
| 20260506235018 | 13 | 250 | 6.4 | 17.7 | 0.03 | 0.20 | 0.20 | 93 | 1006.9 |
| 20260506234549 | 13 | 203 | 8.0 | 19.3 | 0.00 | 0.18 | 0.18 | 92 | 1006.9 |
| 20260506234020 | 13 | 172 | 6.4 | 22.5 | 0.00 | 0.18 | 0.18 | 92 | 1006.9 |
| 20260506233519 | 13 | 230 | 9.7 | 22.5 | 0.00 | 0.18 | 0.18 | 92 | 1007.0 |
| 20260506233108 | 13 | 206 | 8.0 | 24.1 | 0.00 | 0.18 | 0.18 | 92 | 1007.1 |
| 20260506232520 | 13 | 157 | 9.7 | 24.1 | 0.03 | 0.18 | 0.18 | 92 | 1006.9 |
| 20260506232018 | 13 | 203 | 9.7 | 20.9 | 0.03 | 0.18 | 0.18 | 92 | 1007.1 |
| 20260506231537 | 13 | 110 | 9.7 | 20.9 | 0.05 | 0.18 | 0.18 | 92 | 1007.0 |
| 20260506231019 | 13 | 194 | 9.7 | 20.9 | 0.05 | 0.18 | 0.18 | 92 | 1007.1 |
| 20260506230517 | 13 | 253 | 6.4 | 20.9 | 0.08 | 0.18 | 0.18 | 92 | 1007.1 |
| 20260506230036 | 13 | 86 | 8.0 | 20.9 | 0.08 | 0.18 | 0.18 | 92 | 1007.0 |
| 20260506225518 | 13 | 221 | 6.4 | 20.9 | 0.08 | 0.18 | 0.18 | 92 | 1007.0 |
| 20260506225019 | 13 | 202 | 6.4 | 16.1 | 0.08 | 0.18 | 0.18 | 92 | 1006.9 |
| 20260506224534 | 13 | 193 | 9.7 | 19.3 | 0.08 | 0.18 | 0.18 | 92 | 1006.9 |
| 20260506224018 | 13 | 33 | 8.0 | 19.3 | 0.08 | 0.18 | 0.18 | 91 | 1007.0 |
| 20260506223518 | 13 | 185 | 8.0 | 16.1 | 0.08 | 0.18 | 0.18 | 91 | 1007.0 |
| 20260506223038 | 13 | 209 | 8.0 | 22.5 | 0.08 | 0.18 | 0.18 | 91 | 1006.9 |
| 20260506222519 | 13 | 215 | 6.4 | 22.5 | 0.05 | 0.15 | 0.15 | 91 | 1007.2 |
| 20260506222019 | 13 | 184 | 6.4 | 19.3 | 0.05 | 0.15 | 0.15 | 91 | 1007.3 |
| 20260506221550 | 13 | 232 | 4.8 | 19.3 | 0.05 | 0.13 | 0.13 | 91 | 1007.4 |
| 20260506221018 | 13 | 184 | 8.0 | 27.4 | 0.03 | 0.10 | 0.10 | 91 | 1007.4 |
| 20260506220518 | 13 | 133 | 9.7 | 27.4 | 0.03 | 0.10 | 0.10 | 90 | 1007.5 |
| 20260506220043 | 13 | 215 | 9.7 | 22.5 | 0.03 | 0.10 | 0.10 | 90 | 1007.5 |
| 20260506215519 | 13 | 176 | 9.7 | 25.7 | 0.03 | 0.10 | 0.10 | 90 | 1007.5 |
| 20260506215018 | 13 | 184 | 8.0 | 25.7 | 0.03 | 0.10 | 0.10 | 90 | 1007.5 |
| 20260506214537 | 13 | 231 | 9.7 | 22.5 | 0.03 | 0.10 | 0.10 | 90 | 1007.6 |
| 20260506214017 | 13 | 165 | 9.7 | 32.2 | 0.03 | 0.10 | 0.10 | 90 | 1007.5 |
| 20260506213520 | 13 | 160 | 12.9 | 32.2 | 0.03 | 0.10 | 0.10 | 90 | 1007.5 |
| 20260506213041 | 13 | 193 | 12.9 | 25.7 | 0.03 | 0.10 | 0.10 | 90 | 1007.5 |
| 20260506212519 | 13 | 227 | 11.3 | 19.3 | 0.03 | 0.10 | 0.10 | 89 | 1007.7 |
| 20260506212019 | 13 | 224 | 9.7 | 25.7 | 0.00 | 0.08 | 0.08 | 89 | 1007.7 |
| 20260506211545 | 13 | 167 | 12.9 | 25.7 | 0.00 | 0.08 | 0.08 | 89 | 1007.7 |
| 20260506211019 | 13 | 163 | 9.7 | 29.0 | 0.00 | 0.08 | 0.08 | 89 | 1007.8 |
| 20260506210519 | 13 | 127 | 8.0 | 29.0 | 0.00 | 0.08 | 0.08 | 89 | 1007.8 |
| 20260506210045 | 13 | 174 | 8.0 | 22.5 | 0.03 | 0.08 | 0.08 | 89 | 1007.9 |
| 20260506205518 | 13 | 109 | 8.0 | 22.5 | 0.03 | 0.08 | 0.08 | 88 | 1007.8 |
| 20260506205018 | 13 | 239 | 11.3 | 29.0 | 0.05 | 0.08 | 0.08 | 88 | 1007.8 |
| 20260506204538 | 13 | 188 | 11.3 | 30.6 | 0.05 | 0.08 | 0.08 | 88 | 1008.0 |
| 20260506204019 | 13 | 220 | 8.0 | 30.6 | 0.08 | 0.08 | 0.08 | 88 | 1007.9 |
| 20260506203519 | 13 | 231 | 9.7 | 27.4 | 0.08 | 0.08 | 0.08 | 88 | 1007.9 |
| 20260506203038 | 14 | 170 | 11.3 | 25.7 | 0.08 | 0.08 | 0.08 | 88 | 1007.9 |
| 20260506202602 | 14 | 219 | 6.4 | 27.4 | 0.08 | 0.08 | 0.08 | 89 | 1007.9 |
| 20260506202018 | 14 | 181 | 8.0 | 27.4 | 0.08 | 0.08 | 0.08 | 88 | 1008.1 |
| 20260506201540 | 14 | 219 | 8.0 | 19.3 | 0.08 | 0.08 | 0.08 | 88 | 1008.2 |
| 20260506201020 | 14 | 179 | 8.0 | 19.3 | 0.08 | 0.08 | 0.08 | 88 | 1008.0 |
| 20260506200521 | 15 | 162 | 8.0 | 14.5 | 0.08 | 0.08 | 0.08 | 87 | 1008.2 |
| 20260506200037 | 15 | 183 | 6.4 | 16.1 | 0.05 | 0.05 | 0.05 | 86 | 1008.1 |
| 20260506195521 | 15 | 193 | 4.8 | 20.9 | 0.03 | 0.03 | 0.03 | 85 | 1008.2 |
| 20260506195018 | 15 | 181 | 9.7 | 22.5 | 0.03 | 0.03 | 0.03 | 85 | 1008.3 |
| 20260506194537 | 15 | 162 | 9.7 | 22.5 | 0.03 | 0.03 | 0.03 | 83 | 1008.4 |
| 20260506194019 | 15 | 135 | 8.0 | 19.3 | 0.00 | 0.00 | 0.00 | 83 | 1008.5 |
| 20260506193520 | 16 | 252 | 6.4 | 20.9 | 0.00 | 0.00 | 0.00 | 82 | 1008.4 |
| 20260506193044 | 16 | 165 | 6.4 | 22.5 | 0.00 | 0.00 | 0.00 | 81 | 1008.4 |
| 20260506192522 | 16 | 218 | 8.0 | 24.1 | 0.00 | 0.00 | 0.00 | 80 | 1008.2 |
| 20260506192019 | 16 | 217 | 9.7 | 24.1 | 0.00 | 0.00 | 0.00 | 79 | 1008.4 |
| 20260506191534 | 16 | 217 | 6.4 | 33.8 | 0.00 | 0.00 | 0.00 | 79 | 1008.5 |
| 20260506191019 | 16 | 272 | 11.3 | 33.8 | 0.00 | 0.00 | 0.00 | 78 | 1008.5 |
| 20260506190522 | 16 | 289 | 8.0 | 27.4 | 0.00 | 0.00 | 0.00 | 78 | 1008.5 |
| 20260506190037 | 16 | 200 | 11.3 | 27.4 | 0.00 | 0.00 | 0.00 | 78 | 1008.5 |
| 20260506185518 | 16 | 157 | 11.3 | 24.1 | 0.00 | 0.00 | 0.00 | 78 | 1008.4 |
| 20260506185020 | 16 | 220 | 9.7 | 27.4 | 0.00 | 0.00 | 0.00 | 78 | 1008.1 |
| 20260506184539 | 16 | 158 | 11.3 | 27.4 | 0.00 | 0.00 | 0.00 | 78 | 1008.3 |
| 20260506184021 | 16 | 225 | 9.7 | 25.7 | 0.00 | 0.00 | 0.00 | 77 | 1008.6 |
| 20260506183521 | 16 | 182 | 11.3 | 30.6 | 0.00 | 0.00 | 0.00 | 77 | 1008.6 |
| 20260506183033 | 17 | 142 | 14.5 | 35.4 | 0.00 | 0.00 | 0.00 | 77 | 1008.6 |
| 20260506182518 | 17 | 187 | 11.3 | 35.4 | 0.00 | 0.00 | 0.00 | 77 | 1008.6 |
| 20260506182022 | 17 | 212 | 12.9 | 29.0 | 0.00 | 0.00 | 0.00 | 76 | 1008.5 |
| 20260506181553 | 17 | 160 | 8.0 | 24.1 | 0.00 | 0.00 | 0.00 | 76 | 1008.7 |
| 20260506181019 | 17 | 179 | 9.7 | 29.0 | 0.00 | 0.00 | 0.00 | 76 | 1008.8 |
| 20260506180519 | 17 | 193 | 9.7 | 29.0 | 0.00 | 0.00 | 0.00 | 75 | 1008.9 |
| 20260506180039 | 17 | 214 | 12.9 | 25.7 | 0.00 | 0.00 | 0.00 | 75 | 1009.1 |
| 20260506175521 | 17 | 303 | 11.3 | 29.0 | 0.00 | 0.00 | 0.00 | 75 | 1009.1 |
| 20260506175020 | 18 | 181 | 11.3 | 33.8 | 0.00 | 0.00 | 0.00 | 75 | 1009.1 |
| 20260506174538 | 18 | 207 | 12.9 | 33.8 | 0.00 | 0.00 | 0.00 | 75 | 1009.2 |
| 20260506174021 | 18 | 231 | 11.3 | 25.7 | 0.00 | 0.00 | 0.00 | 74 | 1009.3 |
| 20260506173522 | 18 | 195 | 12.9 | 27.4 | 0.00 | 0.00 | 0.00 | 74 | 1009.4 |
| 20260506173103 | 18 | 212 | 11.3 | 30.6 | 0.00 | 0.00 | 0.00 | 74 | 1009.4 |
| 20260506172518 | 18 | 141 | 14.5 | 40.2 | 0.00 | 0.00 | 0.00 | 74 | 1009.2 |
| 20260506172053 | 18 | 156 | 12.9 | 40.2 | 0.00 | 0.00 | 0.00 | 74 | 1009.3 |
| 20260506171542 | 18 | 311 | 9.7 | 33.8 | 0.00 | 0.00 | 0.00 | 74 | 1009.4 |
| 20260506171020 | 18 | 253 | 11.3 | 29.0 | 0.00 | 0.00 | 0.00 | 73 | 1009.2 |
| 20260506170518 | 18 | 105 | 12.9 | 29.0 | 0.00 | 0.00 | 0.00 | 73 | 1009.2 |
| 20260506170051 | 18 | 207 | 11.3 | 32.2 | 0.00 | 0.00 | 0.00 | 74 | 1009.4 |
| 20260506165519 | 18 | 174 | 14.5 | 32.2 | 0.00 | 0.00 | 0.00 | 74 | 1009.4 |
| 20260506165021 | 18 | 153 | 9.7 | 29.0 | 0.00 | 0.00 | 0.00 | 74 | 1009.6 |
| 20260506164535 | 18 | 220 | 11.3 | 29.0 | 0.00 | 0.00 | 0.00 | 73 | 1009.7 |
| 20260506164018 | 18 | 204 | 11.3 | 32.2 | 0.00 | 0.00 | 0.00 | 73 | 1009.6 |
| 20260506163519 | 18 | 142 | 12.9 | 32.2 | 0.00 | 0.00 | 0.00 | 74 | 1009.7 |
| 20260506163050 | 18 | 185 | 8.0 | 32.2 | 0.00 | 0.00 | 0.00 | 74 | 1009.7 |
| 20260506162518 | 18 | 181 | 16.1 | 40.2 | 0.00 | 0.00 | 0.00 | 74 | 1009.8 |
| 20260506162022 | 18 | 231 | 11.3 | 40.2 | 0.00 | 0.00 | 0.00 | 74 | 1009.9 |
| 20260506161540 | 18 | 184 | 14.5 | 30.6 | 0.00 | 0.00 | 0.00 | 74 | 1009.9 |
| 20260506161020 | 18 | 152 | 8.0 | 29.0 | 0.00 | 0.00 | 0.00 | 74 | 1010.0 |
| 20260506160522 | 18 | 192 | 12.9 | 27.4 | 0.00 | 0.00 | 0.00 | 73 | 1010.1 |
| 20260506160042 | 18 | 188 | 11.3 | 27.4 | 0.00 | 0.00 | 0.00 | 73 | 1010.2 |
| 20260506155518 | 18 | 195 | 9.7 | 27.4 | 0.00 | 0.00 | 0.00 | 73 | 1010.3 |
| 20260506155018 | 18 | 222 | 11.3 | 29.0 | 0.00 | 0.00 | 0.00 | 73 | 1010.3 |
| 20260506154547 | 18 | 114 | 12.9 | 29.0 | 0.00 | 0.00 | 0.00 | 73 | 1010.4 |
| 20260506154018 | 18 | 212 | 11.3 | 32.2 | 0.00 | 0.00 | 0.00 | 73 | 1010.4 |
| 20260506153518 | 18 | 226 | 14.5 | 32.2 | 0.00 | 0.00 | 0.00 | 73 | 1010.6 |
| 20260506153038 | 18 | 204 | 14.5 | 25.7 | 0.00 | 0.00 | 0.00 | 73 | 1010.6 |
| 20260506152518 | 18 | 224 | 12.9 | 25.7 | 0.00 | 0.00 | 0.00 | 74 | 1010.8 |
| 20260506152019 | 18 | 145 | 6.4 | 30.6 | 0.00 | 0.00 | 0.00 | 75 | 1010.7 |
| 20260506151539 | 17 | 185 | 16.1 | 30.6 | 0.00 | 0.00 | 0.00 | 75 | 1010.8 |
| 20260506151017 | 18 | 209 | 9.7 | 22.5 | 0.00 | 0.00 | 0.00 | 75 | 1010.7 |
| 20260506150518 | 18 | 160 | 11.3 | 24.1 | 0.00 | 0.00 | 0.00 | 74 | 1010.6 |
| 20260506150039 | 18 | 200 | 4.8 | 24.1 | 0.00 | 0.00 | 0.00 | 75 | 1010.7 |
| 20260506145520 | 17 | 252 | 11.3 | 27.4 | 0.00 | 0.00 | 0.00 | 74 | 1010.7 |
| 20260506145018 | 17 | 206 | 11.3 | 27.4 | 0.00 | 0.00 | 0.00 | 74 | 1010.5 |
| 20260506144544 | 18 | 213 | 9.7 | 25.7 | 0.00 | 0.00 | 0.00 | 74 | 1010.5 |
| 20260506144020 | 18 | 96 | 8.0 | 27.4 | 0.00 | 0.00 | 0.00 | 75 | 1010.3 |
| 20260506143519 | 17 | 171 | 9.7 | 27.4 | 0.00 | 0.00 | 0.00 | 75 | 1010.4 |
| 20260506143037 | 17 | 173 | 8.0 | 33.8 | 0.00 | 0.00 | 0.00 | 75 | 1010.5 |
| 20260506142518 | 17 | 229 | 11.3 | 33.8 | 0.00 | 0.00 | 0.00 | 74 | 1010.4 |
| 20260506142018 | 18 | 155 | 8.0 | 17.7 | 0.00 | 0.00 | 0.00 | 74 | 1010.5 |
| 20260506141534 | 18 | 253 | 8.0 | 22.5 | 0.00 | 0.00 | 0.00 | 75 | 1010.3 |
| 20260506141018 | 17 | 193 | 8.0 | 25.7 | 0.00 | 0.00 | 0.00 | 75 | 1010.3 |
| 20260506140519 | 17 | 87 | 9.7 | 25.7 | 0.00 | 0.00 | 0.00 | 75 | 1010.3 |
| 20260506140039 | 18 | 167 | 9.7 | 20.9 | 0.00 | 0.00 | 0.00 | 75 | 1010.3 |
| 20260506135519 | 17 | 20 | 8.0 | 20.9 | 0.00 | 0.00 | 0.00 | 76 | 1010.4 |
| 20260506135020 | 17 | 163 | 9.7 | 20.9 | 0.00 | 0.00 | 0.00 | 76 | 1010.6 |
| 20260506134538 | 17 | 203 | 9.7 | 27.4 | 0.00 | 0.00 | 0.00 | 77 | 1010.7 |
| 20260506134022 | 17 | 185 | 8.0 | 27.4 | 0.00 | 0.00 | 0.00 | 77 | 1011.0 |
| 20260506133520 | 17 | 181 | 8.0 | 22.5 | 0.00 | 0.00 | 0.00 | 78 | 1011.0 |
| 20260506133052 | 16 | 201 | 8.0 | 25.7 | 0.00 | 0.00 | 0.00 | 78 | 1011.1 |
| 20260506132518 | 16 | 160 | 11.3 | 25.7 | 0.00 | 0.00 | 0.00 | 78 | 1011.1 |
| 20260506132021 | 16 | 212 | 8.0 | 22.5 | 0.00 | 0.00 | 0.00 | 79 | 1011.1 |
| 20260506131538 | 16 | 53 | 6.4 | 22.5 | 0.00 | 0.00 | 0.00 | 80 | 1011.1 |
| 20260506131019 | 16 | 224 | 8.0 | 22.5 | 0.00 | 0.00 | 0.00 | 80 | 1011.1 |
| 20260506130518 | 16 | 234 | 9.7 | 22.5 | 0.00 | 0.00 | 0.00 | 80 | 1011.1 |
| 20260506130039 | 16 | 110 | 6.4 | 20.9 | 0.00 | 0.00 | 0.00 | 81 | 1011.2 |
| 20260506125518 | 15 | 188 | 8.0 | 20.9 | 0.00 | 0.00 | 0.00 | 82 | 1011.3 |
| 20260506125019 | 15 | 224 | 9.7 | 20.9 | 0.00 | 0.00 | 0.00 | 82 | 1011.0 |
| 20260506124536 | 15 | 188 | 8.0 | 27.4 | 0.00 | 0.00 | 0.00 | 82 | 1011.1 |
| 20260506124018 | 15 | 219 | 9.7 | 27.4 | 0.00 | 0.00 | 0.00 | 83 | 1011.1 |
| 20260506123518 | 15 | 205 | 11.3 | 24.1 | 0.00 | 0.00 | 0.00 | 83 | 1011.2 |
| 20260506123036 | 15 | 203 | 11.3 | 20.9 | 0.00 | 0.00 | 0.00 | 82 | 1011.0 |
| 20260506122518 | 15 | 75 | 9.7 | 20.9 | 0.00 | 0.00 | 0.00 | 83 | 1010.9 |
| 20260506122021 | 15 | 235 | 4.8 | 16.1 | 0.00 | 0.00 | 0.00 | 84 | 1011.2 |
| 20260506121539 | 14 | 166 | 8.0 | 19.3 | 0.00 | 0.00 | 0.00 | 84 | 1011.3 |
| 20260506121019 | 14 | 162 | 4.8 | 19.3 | 0.00 | 0.00 | 0.00 | 85 | 1011.3 |
| 20260506120519 | 14 | 247 | 8.0 | 22.5 | 0.00 | 0.00 | 0.00 | 85 | 1011.6 |
| 20260506120038 | 14 | 129 | 9.7 | 22.5 | 0.00 | 0.00 | 0.00 | 84 | 1011.6 |
| 20260506115517 | 14 | 207 | 8.0 | 16.1 | 0.00 | 0.00 | 0.00 | 85 | 1011.5 |
| 20260506115017 | 14 | 142 | 4.8 | 22.5 | 0.00 | 0.00 | 0.00 | 85 | 1011.5 |
| 20260506114539 | 14 | 51 | 6.4 | 22.5 | 0.00 | 0.00 | 0.00 | 85 | 1011.6 |
| 20260506114018 | 14 | 248 | 4.8 | 22.5 | 0.00 | 0.00 | 0.00 | 86 | 1011.7 |
| 20260506113520 | 14 | 68 | 8.0 | 22.5 | 0.00 | 0.00 | 0.00 | 86 | 1011.7 |
| 20260506113034 | 13 | 241 | 9.7 | 19.3 | 0.00 | 0.00 | 0.00 | 86 | 1011.7 |
| 20260506112517 | 13 | 174 | 6.4 | 16.1 | 0.00 | 0.00 | 0.00 | 87 | 1011.7 |
| 20260506112019 | 13 | 252 | 6.4 | 22.5 | 0.00 | 0.00 | 0.00 | 86 | 1011.7 |
| 20260506111538 | 13 | 200 | 6.4 | 22.5 | 0.00 | 0.00 | 0.00 | 87 | 1011.6 |
| 20260506111018 | 13 | 196 | 8.0 | 16.1 | 0.00 | 0.00 | 0.00 | 87 | 1011.6 |
| 20260506110519 | 13 | 243 | 4.8 | 24.1 | 0.00 | 0.00 | 0.00 | 87 | 1011.5 |
| 20260506110043 | 13 | 227 | 8.0 | 24.1 | 0.00 | 0.00 | 0.00 | 87 | 1011.6 |
| 20260506105519 | 13 | 168 | 8.0 | 17.7 | 0.00 | 0.00 | 0.00 | 87 | 1011.7 |
| 20260506105020 | 13 | 148 | 6.4 | 17.7 | 0.00 | 0.00 | 0.00 | 87 | 1011.7 |
| 20260506104604 | 13 | 180 | 6.4 | 16.1 | 0.00 | 0.00 | 0.00 | 88 | 1011.7 |
| 20260506104020 | 13 | 299 | 6.4 | 14.5 | 0.00 | 0.00 | 0.00 | 88 | 1011.6 |
| 20260506103518 | 13 | 101 | 4.8 | 14.5 | 0.00 | 0.00 | 0.00 | 88 | 1011.6 |
| 20260506103041 | 13 | 85 | 6.4 | 19.3 | 0.00 | 0.00 | 0.00 | 88 | 1011.6 |
| 20260506102519 | 13 | 29 | 6.4 | 19.3 | 0.00 | 0.00 | 0.00 | 88 | 1011.6 |
| 20260506102018 | 13 | 166 | 4.8 | 14.5 | 0.00 | 0.00 | 0.00 | 88 | 1011.5 |
| 20260506101536 | 13 | 172 | 4.8 | 14.5 | 0.00 | 0.00 | 0.00 | 88 | 1011.4 |
| 20260506101020 | 13 | 155 | 6.4 | 16.1 | 0.00 | 0.00 | 0.00 | 89 | 1011.5 |
| 20260506100524 | 13 | 212 | 4.8 | 16.1 | 0.00 | 0.00 | 0.00 | 89 | 1011.4 |
| 20260506100040 | 13 | 184 | 8.0 | 20.9 | 0.00 | 0.00 | 0.00 | 89 | 1011.3 |
| 20260506095518 | 13 | 217 | 8.0 | 20.9 | 0.00 | 0.00 | 0.00 | 89 | 1011.2 |
| 20260506095018 | 13 | 136 | 4.8 | 17.7 | 0.00 | 0.00 | 0.00 | 89 | 1011.4 |
| 20260506094539 | 13 | 155 | 3.2 | 14.5 | 0.00 | 0.00 | 0.00 | 88 | 1011.3 |
| 20260506094020 | 13 | 195 | 6.4 | 17.7 | 0.00 | 0.00 | 0.00 | 88 | 1011.3 |
| 20260506093520 | 13 | 176 | 4.8 | 20.9 | 0.00 | 0.00 | 0.00 | 88 | 1011.3 |
| 20260506093037 | 13 | 221 | 6.4 | 20.9 | 0.00 | 0.00 | 0.00 | 88 | 1011.2 |
| 20260506092520 | 13 | 188 | 8.0 | 14.5 | 0.00 | 0.00 | 0.00 | 88 | 1011.3 |
| 20260506092020 | 13 | 171 | 8.0 | 16.1 | 0.00 | 0.00 | 0.00 | 88 | 1011.2 |
| 20260506091538 | 13 | 25 | 6.4 | 17.7 | 0.00 | 0.00 | 0.00 | 88 | 1011.3 |
| 20260506091021 | 13 | 200 | 4.8 | 19.3 | 0.00 | 0.00 | 0.00 | 88 | 1011.1 |
| 20260506090522 | 13 | 173 | 8.0 | 19.3 | 0.00 | 0.00 | 0.00 | 88 | 1011.2 |
| 20260506090044 | 13 | 183 | 6.4 | 19.3 | 0.00 | 0.00 | 0.00 | 87 | 1011.2 |
| 20260506085518 | 13 | 259 | 8.0 | 19.3 | 0.00 | 0.00 | 0.00 | 87 | 1011.3 |
| 20260506085023 | 13 | 176 | 6.4 | 19.3 | 0.00 | 0.00 | 0.00 | 87 | 1011.5 |
| 20260506084537 | 13 | 172 | 6.4 | 25.7 | 0.00 | 0.00 | 0.00 | 87 | 1011.4 |
| 20260506084022 | 13 | 207 | 8.0 | 25.7 | 0.00 | 0.00 | 0.00 | 87 | 1011.4 |
| 20260506083518 | 13 | 201 | 8.0 | 17.7 | 0.00 | 0.00 | 0.00 | 87 | 1011.5 |
| 20260506083044 | 13 | 239 | 3.2 | 14.5 | 0.00 | 0.00 | 0.00 | 87 | 1011.5 |
| 20260506082517 | 13 | 271 | 4.8 | 17.7 | 0.00 | 0.00 | 0.00 | 87 | 1011.4 |
| 20260506082020 | 13 | 163 | 8.0 | 17.7 | 0.00 | 0.00 | 0.00 | 87 | 1011.5 |
| 20260506081537 | 13 | 236 | 6.4 | 17.7 | 0.00 | 0.00 | 0.00 | 87 | 1011.5 |
| 20260506081025 | 13 | 212 | 6.4 | 19.3 | 0.00 | 0.00 | 0.00 | 87 | 1011.5 |
| 20260506080521 | 13 | 236 | 8.0 | 19.3 | 0.00 | 0.00 | 0.00 | 86 | 1011.5 |
| 20260506073524 | 13 | 145 | 8.0 | 16.1 | 0.00 | 0.00 | 0.00 | 86 | 1011.4 |
| 20260506073038 | 13 | 156 | 4.8 | 14.5 | 0.00 | 0.00 | 0.00 | 86 | 1011.3 |
| 20260506072521 | 13 | 219 | 6.4 | 17.7 | 0.00 | 0.00 | 0.00 | 85 | 1011.4 |
| 20260506072018 | 13 | 224 | 4.8 | 19.3 | 0.00 | 0.00 | 0.00 | 85 | 1011.3 |
| 20260506071536 | 13 | 266 | 8.0 | 19.3 | 0.00 | 0.00 | 0.00 | 85 | 1011.3 |
| 20260506071019 | 13 | 195 | 6.4 | 17.7 | 0.00 | 0.00 | 0.00 | 85 | 1011.3 |
| 20260506070519 | 13 | 221 | 6.4 | 17.7 | 0.00 | 0.00 | 0.00 | 85 | 1011.2 |
| 20260506062020 | 13 | 198 | 8.0 | 19.3 | 0.00 | 0.00 | 0.00 | 83 | 1010.9 |
| 20260506061537 | 14 | 184 | 8.0 | 20.9 | 0.00 | 0.00 | 0.00 | 83 | 1011.0 |
| 20260506061020 | 14 | 205 | 8.0 | 20.9 | 0.00 | 0.00 | 0.00 | 83 | 1011.0 |
| 20260506060518 | 14 | 196 | 4.8 | 27.4 | 0.00 | 0.00 | 0.00 | 83 | 1011.0 |